Year,Month,Day,Hour,Minute,Value (Times are PST for temperature in C)
2019,02,06,00,00,-4.40
2019,02,06,00,01,-4.40
2019,02,06,00,02,-4.40
2019,02,06,00,03,-4.50
2019,02,06,00,04,-4.50
2019,02,06,00,05,-4.50
2019,02,06,00,06,-4.60
2019,02,06,00,07,-4.60
2019,02,06,00,08,-4.60
2019,02,06,00,09,-4.60
2019,02,06,00,10,-4.60
2019,02,06,00,11,-4.60
2019,02,06,00,12,-4.60
2019,02,06,00,13,-4.60
2019,02,06,00,14,-4.60
2019,02,06,00,15,-4.60
2019,02,06,00,16,-4.60
2019,02,06,00,17,-4.60
2019,02,06,00,18,-4.60
2019,02,06,00,19,-4.50
2019,02,06,00,20,-4.50
2019,02,06,00,21,-4.50
2019,02,06,00,22,-4.50
2019,02,06,00,23,-4.50
2019,02,06,00,24,-4.50
2019,02,06,00,25,-4.50
2019,02,06,00,26,-4.50
2019,02,06,00,27,-4.40
2019,02,06,00,28,-4.40
2019,02,06,00,29,-4.40
2019,02,06,00,30,-4.40
2019,02,06,00,31,-4.40
2019,02,06,00,32,-4.30
2019,02,06,00,33,-4.30
2019,02,06,00,34,-4.30
2019,02,06,00,35,-4.30
2019,02,06,00,36,-4.30
2019,02,06,00,37,-4.30
2019,02,06,00,38,-4.30
2019,02,06,00,39,-4.30
2019,02,06,00,40,-4.30
2019,02,06,00,41,-4.30
2019,02,06,00,42,-4.40
2019,02,06,00,43,-4.40
2019,02,06,00,44,-4.40
2019,02,06,00,45,-4.40
2019,02,06,00,46,-4.40
2019,02,06,00,47,-4.40
2019,02,06,00,48,-4.40
2019,02,06,00,49,-4.40
2019,02,06,00,50,-4.40
2019,02,06,00,51,-4.50
2019,02,06,00,52,-4.50
2019,02,06,00,53,-4.50
2019,02,06,00,54,-4.50
2019,02,06,00,55,-4.50
2019,02,06,00,56,-4.60
2019,02,06,00,57,-4.60
2019,02,06,00,58,-4.60
2019,02,06,00,59,-4.60
2019,02,06,01,00,-4.60
2019,02,06,01,01,-4.60
2019,02,06,01,02,-4.60
2019,02,06,01,03,-4.60
2019,02,06,01,04,-4.60
2019,02,06,01,05,-4.60
2019,02,06,01,06,-4.60
2019,02,06,01,07,-4.60
2019,02,06,01,08,-4.70
2019,02,06,01,09,-4.70
2019,02,06,01,10,-4.70
2019,02,06,01,11,-4.60
2019,02,06,01,12,-4.60
2019,02,06,01,13,-4.60
2019,02,06,01,14,-4.60
2019,02,06,01,15,-4.50
2019,02,06,01,16,-4.50
2019,02,06,01,17,-4.50
2019,02,06,01,18,-4.60
2019,02,06,01,19,-4.60
2019,02,06,01,20,-4.60
2019,02,06,01,21,-4.60
2019,02,06,01,22,-4.60
2019,02,06,01,23,-4.70
2019,02,06,01,24,-4.70
2019,02,06,01,25,-4.70
2019,02,06,01,26,-4.70
2019,02,06,01,27,-4.70
2019,02,06,01,28,-4.70
2019,02,06,01,29,-4.70
2019,02,06,01,30,-4.70
2019,02,06,01,31,-4.70
2019,02,06,01,32,-4.80
2019,02,06,01,33,-4.80
2019,02,06,01,34,-4.80
2019,02,06,01,35,-4.80
2019,02,06,01,36,-4.80
2019,02,06,01,37,-4.80
2019,02,06,01,38,-4.80
2019,02,06,01,39,-4.80
2019,02,06,01,40,-4.80
2019,02,06,01,41,-4.90
2019,02,06,01,42,-4.90
2019,02,06,01,43,-4.90
2019,02,06,01,44,-4.90
2019,02,06,01,45,-4.90
2019,02,06,01,46,-5.00
2019,02,06,01,47,-4.90
2019,02,06,01,48,-4.90
2019,02,06,01,49,-4.90
2019,02,06,01,50,-4.90
2019,02,06,01,51,-4.90
2019,02,06,01,52,-4.90
2019,02,06,01,53,-4.90
2019,02,06,01,54,-4.90
2019,02,06,01,55,-5.00
2019,02,06,01,56,-5.00
2019,02,06,01,57,-5.00
2019,02,06,01,58,-5.00
2019,02,06,01,59,-5.00
2019,02,06,02,00,-5.00
2019,02,06,02,01,-5.10
2019,02,06,02,02,-5.10
2019,02,06,02,03,-5.10
2019,02,06,02,04,-5.10
2019,02,06,02,05,-5.10
2019,02,06,02,06,-5.10
2019,02,06,02,07,-5.10
2019,02,06,02,08,-5.10
2019,02,06,02,09,-5.10
2019,02,06,02,10,-5.10
2019,02,06,02,11,-5.10
2019,02,06,02,12,-5.10
2019,02,06,02,13,-5.10
2019,02,06,02,14,-5.00
2019,02,06,02,15,-5.00
2019,02,06,02,16,-5.00
2019,02,06,02,17,-5.00
2019,02,06,02,18,-5.00
2019,02,06,02,19,-5.00
2019,02,06,02,20,-5.00
2019,02,06,02,21,-5.00
2019,02,06,02,22,-5.00
2019,02,06,02,23,-5.00
2019,02,06,02,24,-5.00
2019,02,06,02,25,-5.00
2019,02,06,02,26,-5.00
2019,02,06,02,27,-5.00
2019,02,06,02,28,-5.00
2019,02,06,02,29,-5.00
2019,02,06,02,30,-5.00
2019,02,06,02,31,-4.90
2019,02,06,02,32,-4.90
2019,02,06,02,33,-4.90
2019,02,06,02,34,-4.90
2019,02,06,02,35,-4.90
2019,02,06,02,36,-4.90
2019,02,06,02,37,-4.90
2019,02,06,02,38,-4.90
2019,02,06,02,39,-4.90
2019,02,06,02,40,-4.90
2019,02,06,02,41,-4.90
2019,02,06,02,42,-4.90
2019,02,06,02,43,-4.90
2019,02,06,02,44,-4.90
2019,02,06,02,45,-4.90
2019,02,06,02,46,-4.90
2019,02,06,02,47,-4.90
2019,02,06,02,48,-4.90
2019,02,06,02,49,-4.80
2019,02,06,02,50,-4.80
2019,02,06,02,51,-4.80
2019,02,06,02,52,-4.80
2019,02,06,02,53,-4.70
2019,02,06,02,54,-4.70
2019,02,06,02,55,-4.70
2019,02,06,02,56,-4.70
2019,02,06,02,57,-4.70
2019,02,06,02,58,-4.70
2019,02,06,02,59,-4.60
2019,02,06,03,00,-4.60
2019,02,06,03,01,-4.60
2019,02,06,03,02,-4.60
2019,02,06,03,03,-4.60
2019,02,06,03,04,-4.60
2019,02,06,03,05,-4.60
2019,02,06,03,06,-4.60
2019,02,06,03,07,-4.60
2019,02,06,03,08,-4.50
2019,02,06,03,09,-4.50
2019,02,06,03,10,-4.50
2019,02,06,03,11,-4.50
2019,02,06,03,12,-4.50
2019,02,06,03,13,-4.50
2019,02,06,03,14,-4.50
2019,02,06,03,15,-4.50
2019,02,06,03,16,-4.50
2019,02,06,03,17,-4.50
2019,02,06,03,18,-4.50
2019,02,06,03,19,-4.40
2019,02,06,03,20,-4.50
2019,02,06,03,21,-4.50
2019,02,06,03,22,-4.50
2019,02,06,03,23,-4.50
2019,02,06,03,24,-4.40
2019,02,06,03,25,-4.50
2019,02,06,03,26,-4.40
2019,02,06,03,27,-4.50
2019,02,06,03,28,-4.50
2019,02,06,03,29,-4.50
2019,02,06,03,30,-4.50
2019,02,06,03,31,-4.50
2019,02,06,03,32,-4.50
2019,02,06,03,33,-4.50
2019,02,06,03,34,-4.50
2019,02,06,03,35,-4.50
2019,02,06,03,36,-4.50
2019,02,06,03,37,-4.60
2019,02,06,03,38,-4.50
2019,02,06,03,39,-4.60
2019,02,06,03,40,-4.60
2019,02,06,03,41,-4.60
2019,02,06,03,42,-4.60
2019,02,06,03,43,-4.60
2019,02,06,03,44,-4.60
2019,02,06,03,45,-4.60
2019,02,06,03,46,-4.60
2019,02,06,03,47,-4.60
2019,02,06,03,48,-4.60
2019,02,06,03,49,-4.70
2019,02,06,03,50,-4.70
2019,02,06,03,51,-4.70
2019,02,06,03,52,-4.70
2019,02,06,03,53,-4.70
2019,02,06,03,54,-4.70
2019,02,06,03,55,-4.70
2019,02,06,03,56,-4.70
2019,02,06,03,57,-4.70
2019,02,06,03,58,-4.80
2019,02,06,03,59,-4.80
2019,02,06,04,00,-4.80
2019,02,06,04,01,-4.80
2019,02,06,04,02,-4.80
2019,02,06,04,03,-4.80
2019,02,06,04,04,-4.90
2019,02,06,04,05,-4.90
2019,02,06,04,06,-4.90
2019,02,06,04,07,-4.90
2019,02,06,04,08,-4.90
2019,02,06,04,09,-4.90
2019,02,06,04,10,-4.90
2019,02,06,04,11,-4.90
2019,02,06,04,12,-4.90
2019,02,06,04,13,-4.90
2019,02,06,04,14,-4.90
2019,02,06,04,15,-4.90
2019,02,06,04,16,-4.90
2019,02,06,04,17,-4.90
2019,02,06,04,18,-4.90
2019,02,06,04,19,-4.90
2019,02,06,04,20,-4.90
2019,02,06,04,21,-4.90
2019,02,06,04,22,-5.00
2019,02,06,04,23,-5.00
2019,02,06,04,24,-5.00
2019,02,06,04,25,-5.00
2019,02,06,04,26,-5.00
2019,02,06,04,27,-5.10
2019,02,06,04,28,-5.10
2019,02,06,04,29,-5.10
2019,02,06,04,30,-5.10
2019,02,06,04,31,-5.20
2019,02,06,04,32,-5.20
2019,02,06,04,33,-5.20
2019,02,06,04,34,-5.20
2019,02,06,04,35,-5.20
2019,02,06,04,36,-5.20
2019,02,06,04,37,-5.20
2019,02,06,04,38,-5.20
2019,02,06,04,39,-5.20
2019,02,06,04,40,-5.20
2019,02,06,04,41,-5.20
2019,02,06,04,42,-5.30
2019,02,06,04,43,-5.30
2019,02,06,04,44,-5.30
2019,02,06,04,45,-5.30
2019,02,06,04,46,-5.30
2019,02,06,04,47,-5.30
2019,02,06,04,48,-5.30
2019,02,06,04,49,-5.30
2019,02,06,04,50,-5.30
2019,02,06,04,51,-5.30
2019,02,06,04,52,-5.30
2019,02,06,04,53,-5.30
2019,02,06,04,54,-5.30
2019,02,06,04,55,-5.30
2019,02,06,04,56,-5.30
2019,02,06,04,57,-5.30
2019,02,06,04,58,-5.30
2019,02,06,04,59,-5.30
2019,02,06,05,00,-5.30
2019,02,06,05,01,-5.30
2019,02,06,05,02,-5.40
2019,02,06,05,03,-5.40
2019,02,06,05,04,-5.40
2019,02,06,05,05,-5.40
2019,02,06,05,06,-5.40
2019,02,06,05,07,-5.40
2019,02,06,05,08,-5.40
2019,02,06,05,09,-5.40
2019,02,06,05,10,-5.40
2019,02,06,05,11,-5.40
2019,02,06,05,12,-5.40
2019,02,06,05,13,-5.40
2019,02,06,05,14,-5.40
2019,02,06,05,15,-5.40
2019,02,06,05,16,-5.40
2019,02,06,05,17,-5.40
2019,02,06,05,18,-5.40
2019,02,06,05,19,-5.40
2019,02,06,05,20,-5.40
2019,02,06,05,21,-5.30
2019,02,06,05,22,-5.30
2019,02,06,05,23,-5.30
2019,02,06,05,24,-5.30
2019,02,06,05,25,-5.30
2019,02,06,05,26,-5.30
2019,02,06,05,27,-5.30
2019,02,06,05,28,-5.30
2019,02,06,05,29,-5.30
2019,02,06,05,30,-5.30
2019,02,06,05,31,-5.30
2019,02,06,05,32,-5.30
2019,02,06,05,33,-5.30
2019,02,06,05,34,-5.30
2019,02,06,05,35,-5.30
2019,02,06,05,36,-5.30
2019,02,06,05,37,-5.30
2019,02,06,05,38,-5.20
2019,02,06,05,39,-5.20
2019,02,06,05,40,-5.20
2019,02,06,05,41,-5.20
2019,02,06,05,42,-5.20
2019,02,06,05,43,-5.10
2019,02,06,05,44,-5.10
2019,02,06,05,45,-5.10
2019,02,06,05,46,-5.10
2019,02,06,05,47,-5.10
2019,02,06,05,48,-5.10
2019,02,06,05,49,-5.10
2019,02,06,05,50,-5.10
2019,02,06,05,51,-5.10
2019,02,06,05,52,-5.10
2019,02,06,05,53,-5.10
2019,02,06,05,54,-5.10
2019,02,06,05,55,-5.10
2019,02,06,05,56,-5.10
2019,02,06,05,57,-5.00
2019,02,06,05,58,-5.00
2019,02,06,05,59,-5.00
2019,02,06,06,00,-5.00
2019,02,06,06,01,-4.90
2019,02,06,06,02,-4.90
2019,02,06,06,03,-4.90
2019,02,06,06,04,-4.90
2019,02,06,06,05,-4.90
2019,02,06,06,06,-4.80
2019,02,06,06,07,-4.80
2019,02,06,06,08,-4.80
2019,02,06,06,09,-4.80
2019,02,06,06,10,-4.80
2019,02,06,06,11,-4.70
2019,02,06,06,12,-4.70
2019,02,06,06,13,-4.70
2019,02,06,06,14,-4.70
2019,02,06,06,15,-4.70
2019,02,06,06,16,-4.70
2019,02,06,06,17,-4.70
2019,02,06,06,18,-4.70
2019,02,06,06,19,-4.70
2019,02,06,06,20,-4.60
2019,02,06,06,21,-4.60
2019,02,06,06,22,-4.60
2019,02,06,06,23,-4.60
2019,02,06,06,24,-4.60
2019,02,06,06,25,-4.60
2019,02,06,06,26,-4.60
2019,02,06,06,27,-4.60
2019,02,06,06,28,-4.60
2019,02,06,06,29,-4.60
2019,02,06,06,30,-4.60
2019,02,06,06,31,-4.60
2019,02,06,06,32,-4.60
2019,02,06,06,33,-4.60
2019,02,06,06,34,-4.60
2019,02,06,06,35,-4.60
2019,02,06,06,36,-4.60
2019,02,06,06,37,-4.60
2019,02,06,06,38,-4.60
2019,02,06,06,39,-4.60
2019,02,06,06,40,-4.60
2019,02,06,06,41,-4.60
2019,02,06,06,42,-4.60
2019,02,06,06,43,-4.60
2019,02,06,06,44,-4.60
2019,02,06,06,45,-4.60
2019,02,06,06,46,-4.60
2019,02,06,06,47,-4.50
2019,02,06,06,48,-4.50
2019,02,06,06,49,-4.50
2019,02,06,06,50,-4.50
2019,02,06,06,51,-4.50
2019,02,06,06,52,-4.50
2019,02,06,06,53,-4.50
2019,02,06,06,54,-4.40
2019,02,06,06,55,-4.40
2019,02,06,06,56,-4.40
2019,02,06,06,57,-4.40
2019,02,06,06,58,-4.40
2019,02,06,06,59,-4.40
2019,02,06,07,00,-4.40
2019,02,06,07,01,-4.40
2019,02,06,07,02,-4.40
2019,02,06,07,03,-4.40
2019,02,06,07,04,-4.40
2019,02,06,07,05,-4.30
2019,02,06,07,06,-4.40
2019,02,06,07,07,-4.40
2019,02,06,07,08,-4.30
2019,02,06,07,09,-4.30
2019,02,06,07,10,-4.40
2019,02,06,07,11,-4.40
2019,02,06,07,12,-4.40
2019,02,06,07,13,-4.40
2019,02,06,07,14,-4.40
2019,02,06,07,15,-4.40
2019,02,06,07,16,-4.40
2019,02,06,07,17,-4.40
2019,02,06,07,18,-4.40
2019,02,06,07,19,-4.40
2019,02,06,07,20,-4.50
2019,02,06,07,21,-4.50
2019,02,06,07,22,-4.50
2019,02,06,07,23,-4.50
2019,02,06,07,24,-4.50
2019,02,06,07,25,-4.50
2019,02,06,07,26,-4.50
2019,02,06,07,27,-4.50
2019,02,06,07,28,-4.50
2019,02,06,07,29,-4.60
2019,02,06,07,30,-4.60
2019,02,06,07,31,-4.60
2019,02,06,07,32,-4.60
2019,02,06,07,33,-4.60
2019,02,06,07,34,-4.60
2019,02,06,07,35,-4.60
2019,02,06,07,36,-4.60
2019,02,06,07,37,-4.60
2019,02,06,07,38,-4.60
2019,02,06,07,39,-4.70
2019,02,06,07,40,-4.70
2019,02,06,07,41,-4.70
2019,02,06,07,42,-4.70
2019,02,06,07,43,-4.70
2019,02,06,07,44,-4.70
2019,02,06,07,45,-4.70
2019,02,06,07,46,-4.70
2019,02,06,07,47,-4.70
2019,02,06,07,48,-4.70
2019,02,06,07,49,-4.70
2019,02,06,07,50,-4.70
2019,02,06,07,51,-4.70
2019,02,06,07,52,-4.70
2019,02,06,07,53,-4.60
2019,02,06,07,54,-4.60
2019,02,06,07,55,-4.60
2019,02,06,07,56,-4.60
2019,02,06,07,57,-4.60
2019,02,06,07,58,-4.60
2019,02,06,07,59,-4.50
2019,02,06,08,00,-4.50
2019,02,06,08,01,-4.50
2019,02,06,08,02,-4.40
2019,02,06,08,03,-4.40
2019,02,06,08,04,-4.40
2019,02,06,08,05,-4.40
2019,02,06,08,06,-4.40
2019,02,06,08,07,-4.30
2019,02,06,08,08,-4.30
2019,02,06,08,09,-4.30
2019,02,06,08,10,-4.30
2019,02,06,08,11,-4.20
2019,02,06,08,12,-4.20
2019,02,06,08,13,-4.20
2019,02,06,08,14,-4.10
2019,02,06,08,15,-4.10
2019,02,06,08,16,-4.10
2019,02,06,08,17,-4.10
2019,02,06,08,18,-4.10
2019,02,06,08,19,-4.10
2019,02,06,08,20,-4.00
2019,02,06,08,21,-3.90
2019,02,06,08,22,-3.90
2019,02,06,08,23,-3.80
2019,02,06,08,24,-3.80
2019,02,06,08,25,-3.80
2019,02,06,08,26,-3.80
2019,02,06,08,27,-3.70
2019,02,06,08,28,-3.70
2019,02,06,08,29,-3.60
2019,02,06,08,30,-3.60
2019,02,06,08,31,-3.50
2019,02,06,08,32,-3.50
2019,02,06,08,33,-3.40
2019,02,06,08,34,-3.40
2019,02,06,08,35,-3.40
2019,02,06,08,36,-3.40
2019,02,06,08,37,-3.40
2019,02,06,08,38,-3.40
2019,02,06,08,39,-3.40
2019,02,06,08,40,-3.50
2019,02,06,08,41,-3.50
2019,02,06,08,42,-3.50
2019,02,06,08,43,-3.50
2019,02,06,08,44,-3.50
2019,02,06,08,45,-3.50
2019,02,06,08,46,-3.40
2019,02,06,08,47,-3.40
2019,02,06,08,48,-3.40
2019,02,06,08,49,-3.30
2019,02,06,08,50,-3.30
2019,02,06,08,51,-3.30
2019,02,06,08,52,-3.30
2019,02,06,08,53,-3.20
2019,02,06,08,54,-3.20
2019,02,06,08,55,-3.20
2019,02,06,08,56,-3.10
2019,02,06,08,57,-3.10
2019,02,06,08,58,-3.00
2019,02,06,08,59,-3.00
2019,02,06,09,00,-2.90
2019,02,06,09,01,-2.90
2019,02,06,09,02,-2.90
2019,02,06,09,03,-2.90
2019,02,06,09,04,-2.90
2019,02,06,09,05,-2.90
2019,02,06,09,06,-2.80
2019,02,06,09,07,-2.80
2019,02,06,09,08,-2.80
2019,02,06,09,09,-2.80
2019,02,06,09,10,-2.80
2019,02,06,09,11,-2.80
2019,02,06,09,12,-2.80
2019,02,06,09,13,-2.80
2019,02,06,09,14,-2.80
2019,02,06,09,15,-2.70
2019,02,06,09,16,-2.70
2019,02,06,09,17,-2.60
2019,02,06,09,18,-2.60
2019,02,06,09,19,-2.60
2019,02,06,09,20,-2.60
2019,02,06,09,21,-2.50
2019,02,06,09,22,-2.50
2019,02,06,09,23,-2.50
2019,02,06,09,24,-2.40
2019,02,06,09,25,-2.40
2019,02,06,09,26,-2.40
2019,02,06,09,27,-2.40
2019,02,06,09,28,-2.40
2019,02,06,09,29,-2.40
2019,02,06,09,30,-2.40
2019,02,06,09,31,-2.40
2019,02,06,09,32,-2.40
2019,02,06,09,33,-2.40
2019,02,06,09,34,-2.30
2019,02,06,09,35,-2.20
2019,02,06,09,36,-2.20
2019,02,06,09,37,-2.10
2019,02,06,09,38,-2.10
2019,02,06,09,39,-2.00
2019,02,06,09,40,-1.90
2019,02,06,09,41,-1.90
2019,02,06,09,42,-1.80
2019,02,06,09,43,-1.70
2019,02,06,09,44,-1.60
2019,02,06,09,45,-1.60
2019,02,06,09,46,-1.50
2019,02,06,09,47,-1.30
2019,02,06,09,48,-1.20
2019,02,06,09,49,-1.10
2019,02,06,09,50,-1.00
2019,02,06,09,51,-0.90
2019,02,06,09,52,-0.80
2019,02,06,09,53,-0.80
2019,02,06,09,54,-0.80
2019,02,06,09,55,-0.80
2019,02,06,09,56,-0.70
2019,02,06,09,57,-0.70
2019,02,06,09,58,-0.70
2019,02,06,09,59,-0.60
2019,02,06,10,00,-0.60
2019,02,06,10,01,-0.50
2019,02,06,10,02,-0.50
2019,02,06,10,03,-0.50
2019,02,06,10,04,-0.50
2019,02,06,10,05,-0.50
2019,02,06,10,06,-0.60
2019,02,06,10,07,-0.60
2019,02,06,10,08,-0.60
2019,02,06,10,09,-0.60
2019,02,06,10,10,-0.60
2019,02,06,10,11,-0.60
2019,02,06,10,12,-0.70
2019,02,06,10,13,-0.60
2019,02,06,10,14,-0.60
2019,02,06,10,15,-0.60
2019,02,06,10,16,-0.50
2019,02,06,10,17,-0.40
2019,02,06,10,18,-0.40
2019,02,06,10,19,-0.40
2019,02,06,10,20,-0.30
2019,02,06,10,21,-0.30
2019,02,06,10,22,-0.20
2019,02,06,10,23,-0.20
2019,02,06,10,24,-0.10
2019,02,06,10,25,0.00
2019,02,06,10,26,0.10
2019,02,06,10,27,0.10
2019,02,06,10,28,0.20
2019,02,06,10,29,0.30
2019,02,06,10,30,0.30
2019,02,06,10,31,0.40
2019,02,06,10,32,0.50
2019,02,06,10,33,0.50
2019,02,06,10,34,0.60
2019,02,06,10,35,0.70
2019,02,06,10,36,0.70
2019,02,06,10,37,0.80
2019,02,06,10,38,0.80
2019,02,06,10,39,0.80
2019,02,06,10,40,0.80
2019,02,06,10,41,0.80
2019,02,06,10,42,0.80
2019,02,06,10,43,0.80
2019,02,06,10,44,0.80
2019,02,06,10,45,0.80
2019,02,06,10,46,0.90
2019,02,06,10,47,0.90
2019,02,06,10,48,0.90
2019,02,06,10,49,1.00
2019,02,06,10,50,1.10
2019,02,06,10,51,1.10
2019,02,06,10,52,1.10
2019,02,06,10,53,1.20
2019,02,06,10,54,1.20
2019,02,06,10,55,1.20
2019,02,06,10,56,1.10
2019,02,06,10,57,1.20
2019,02,06,10,58,1.20
2019,02,06,10,59,1.20
2019,02,06,11,00,1.20
2019,02,06,11,01,1.30
2019,02,06,11,02,1.40
2019,02,06,11,03,1.50
2019,02,06,11,04,1.50
2019,02,06,11,05,1.60
2019,02,06,11,06,1.60
2019,02,06,11,07,1.60
2019,02,06,11,08,1.70
2019,02,06,11,09,1.70
2019,02,06,11,10,1.60
2019,02,06,11,11,1.60
2019,02,06,11,12,1.50
2019,02,06,11,13,1.50
2019,02,06,11,14,1.50
2019,02,06,11,15,1.50
2019,02,06,11,16,1.50
2019,02,06,11,17,1.60
2019,02,06,11,18,1.60
2019,02,06,11,19,1.70
2019,02,06,11,20,1.70
2019,02,06,11,21,1.70
2019,02,06,11,22,1.80
2019,02,06,11,23,1.80
2019,02,06,11,24,1.90
2019,02,06,11,25,1.90
2019,02,06,11,26,1.90
2019,02,06,11,27,1.90
2019,02,06,11,28,1.90
2019,02,06,11,29,1.90
2019,02,06,11,30,1.90
2019,02,06,11,31,1.90
2019,02,06,11,32,1.90
2019,02,06,11,33,1.90
2019,02,06,11,34,1.90
2019,02,06,11,35,2.00
2019,02,06,11,36,2.10
2019,02,06,11,37,2.10
2019,02,06,11,38,2.20
2019,02,06,11,39,2.20
2019,02,06,11,40,2.20
2019,02,06,11,41,2.30
2019,02,06,11,42,2.30
2019,02,06,11,43,2.30
2019,02,06,11,44,2.30
2019,02,06,11,45,2.30
2019,02,06,11,46,2.30
2019,02,06,11,47,2.30
2019,02,06,11,48,2.30
2019,02,06,11,49,2.30
2019,02,06,11,50,2.40
2019,02,06,11,51,2.50
2019,02,06,11,52,2.60
2019,02,06,11,53,2.60
2019,02,06,11,54,2.70
2019,02,06,11,55,2.80
2019,02,06,11,56,2.90
2019,02,06,11,57,3.00
2019,02,06,11,58,3.00
2019,02,06,11,59,3.10
2019,02,06,12,00,3.10
2019,02,06,12,01,3.20
2019,02,06,12,02,3.20
2019,02,06,12,03,3.20
2019,02,06,12,04,3.20
2019,02,06,12,05,3.20
2019,02,06,12,06,3.20
2019,02,06,12,07,3.10
2019,02,06,12,08,3.10
2019,02,06,12,09,3.00
2019,02,06,12,10,2.90
2019,02,06,12,11,2.90
2019,02,06,12,12,2.90
2019,02,06,12,13,2.80
2019,02,06,12,14,2.70
2019,02,06,12,15,2.70
2019,02,06,12,16,2.60
2019,02,06,12,17,2.60
2019,02,06,12,18,2.50
2019,02,06,12,19,2.50
2019,02,06,12,20,2.60
2019,02,06,12,21,2.60
2019,02,06,12,22,2.60
2019,02,06,12,23,2.60
2019,02,06,12,24,2.60
2019,02,06,12,25,2.60
2019,02,06,12,26,2.60
2019,02,06,12,27,2.60
2019,02,06,12,28,2.60
2019,02,06,12,29,2.60
2019,02,06,12,30,2.60
2019,02,06,12,31,2.60
2019,02,06,12,32,2.60
2019,02,06,12,33,2.70
2019,02,06,12,34,2.70
2019,02,06,12,35,2.70
2019,02,06,12,36,2.80
2019,02,06,12,37,2.80
2019,02,06,12,38,2.80
2019,02,06,12,39,2.80
2019,02,06,12,40,2.80
2019,02,06,12,41,2.80
2019,02,06,12,42,2.80
2019,02,06,12,43,2.80
2019,02,06,12,44,2.70
2019,02,06,12,45,2.70
2019,02,06,12,46,2.80
2019,02,06,12,47,2.90
2019,02,06,12,48,2.90
2019,02,06,12,49,2.90
2019,02,06,12,50,3.00
2019,02,06,12,51,3.00
2019,02,06,12,52,3.00
2019,02,06,12,53,2.90
2019,02,06,12,54,3.00
2019,02,06,12,55,3.00
2019,02,06,12,56,3.10
2019,02,06,12,57,3.10
2019,02,06,12,58,3.20
2019,02,06,12,59,3.20
2019,02,06,13,00,3.30
2019,02,06,13,01,3.30
2019,02,06,13,02,3.40
2019,02,06,13,03,3.50
2019,02,06,13,04,3.50
2019,02,06,13,05,3.40
2019,02,06,13,06,3.40
2019,02,06,13,07,3.30
2019,02,06,13,08,3.30
2019,02,06,13,09,3.30
2019,02,06,13,10,3.30
2019,02,06,13,11,3.30
2019,02,06,13,12,3.20
2019,02,06,13,13,3.20
2019,02,06,13,14,3.20
2019,02,06,13,15,3.20
2019,02,06,13,16,3.20
2019,02,06,13,17,3.20
2019,02,06,13,18,3.20
2019,02,06,13,19,3.30
2019,02,06,13,20,3.30
2019,02,06,13,21,3.30
2019,02,06,13,22,3.30
2019,02,06,13,23,3.30
2019,02,06,13,24,3.30
2019,02,06,13,25,3.30
2019,02,06,13,26,3.30
2019,02,06,13,27,3.30
2019,02,06,13,28,3.30
2019,02,06,13,29,3.30
2019,02,06,13,30,3.30
2019,02,06,13,31,3.30
2019,02,06,13,32,3.30
2019,02,06,13,33,3.30
2019,02,06,13,34,3.30
2019,02,06,13,35,3.30
2019,02,06,13,36,3.30
2019,02,06,13,37,3.30
2019,02,06,13,38,3.30
2019,02,06,13,39,3.30
2019,02,06,13,40,3.30
2019,02,06,13,41,3.40
2019,02,06,13,42,3.40
2019,02,06,13,43,3.40
2019,02,06,13,44,3.40
2019,02,06,13,45,3.40
2019,02,06,13,46,3.40
2019,02,06,13,47,3.40
2019,02,06,13,48,3.50
2019,02,06,13,49,3.50
2019,02,06,13,50,3.50
2019,02,06,13,51,3.50
2019,02,06,13,52,3.50
2019,02,06,13,53,3.50
2019,02,06,13,54,3.60
2019,02,06,13,55,3.60
2019,02,06,13,56,3.60
2019,02,06,13,57,3.60
2019,02,06,13,58,3.60
2019,02,06,13,59,3.60
2019,02,06,14,00,3.70
2019,02,06,14,01,3.70
2019,02,06,14,02,3.70
2019,02,06,14,03,3.70
2019,02,06,14,04,3.70
2019,02,06,14,05,3.70
2019,02,06,14,06,3.60
2019,02,06,14,07,3.60
2019,02,06,14,08,3.60
2019,02,06,14,09,3.60
2019,02,06,14,10,3.60
2019,02,06,14,11,3.60
2019,02,06,14,12,3.60
2019,02,06,14,13,3.60
2019,02,06,14,14,3.60
2019,02,06,14,15,3.50
2019,02,06,14,16,3.50
2019,02,06,14,17,3.40
2019,02,06,14,18,3.40
2019,02,06,14,19,3.40
2019,02,06,14,20,3.40
2019,02,06,14,21,3.40
2019,02,06,14,22,3.50
2019,02,06,14,23,3.50
2019,02,06,14,24,3.50
2019,02,06,14,25,3.50
2019,02,06,14,26,3.50
2019,02,06,14,27,3.50
2019,02,06,14,28,3.50
2019,02,06,14,29,3.50
2019,02,06,14,30,3.50
2019,02,06,14,31,3.50
2019,02,06,14,32,3.50
2019,02,06,14,33,3.50
2019,02,06,14,34,3.50
2019,02,06,14,35,3.50
2019,02,06,14,36,3.60
2019,02,06,14,37,3.50
2019,02,06,14,38,3.60
2019,02,06,14,39,3.60
2019,02,06,14,40,3.60
2019,02,06,14,41,3.70
2019,02,06,14,42,3.70
2019,02,06,14,43,3.70
2019,02,06,14,44,3.70
2019,02,06,14,45,3.70
2019,02,06,14,46,3.60
2019,02,06,14,47,3.60
2019,02,06,14,48,3.50
2019,02,06,14,49,3.50
2019,02,06,14,50,3.40
2019,02,06,14,51,3.40
2019,02,06,14,52,3.40
2019,02,06,14,53,3.40
2019,02,06,14,54,3.40
2019,02,06,14,55,3.30
2019,02,06,14,56,3.30
2019,02,06,14,57,3.30
2019,02,06,14,58,3.30
2019,02,06,14,59,3.30
2019,02,06,15,00,3.30
2019,02,06,15,01,3.40
2019,02,06,15,02,3.40
2019,02,06,15,03,3.40
2019,02,06,15,04,3.40
2019,02,06,15,05,3.40
2019,02,06,15,06,3.40
2019,02,06,15,07,3.40
2019,02,06,15,08,3.40
2019,02,06,15,09,3.50
2019,02,06,15,10,3.50
2019,02,06,15,11,3.60
2019,02,06,15,12,3.60
2019,02,06,15,13,3.60
2019,02,06,15,14,3.60
2019,02,06,15,15,3.60
2019,02,06,15,16,3.60
2019,02,06,15,17,3.60
2019,02,06,15,18,3.60
2019,02,06,15,19,3.60
2019,02,06,15,20,3.60
2019,02,06,15,21,3.60
2019,02,06,15,22,3.60
2019,02,06,15,23,3.60
2019,02,06,15,24,3.60
2019,02,06,15,25,3.60
2019,02,06,15,26,3.60
2019,02,06,15,27,3.50
2019,02,06,15,28,3.50
2019,02,06,15,29,3.50
2019,02,06,15,30,3.40
2019,02,06,15,31,3.40
2019,02,06,15,32,3.40
2019,02,06,15,33,3.40
2019,02,06,15,34,3.40
2019,02,06,15,35,3.40
2019,02,06,15,36,3.30
2019,02,06,15,37,3.30
2019,02,06,15,38,3.30
2019,02,06,15,39,3.40
2019,02,06,15,40,3.40
2019,02,06,15,41,3.40
2019,02,06,15,42,3.40
2019,02,06,15,43,3.50
2019,02,06,15,44,3.40
2019,02,06,15,45,3.40
2019,02,06,15,46,3.40
2019,02,06,15,47,3.40
2019,02,06,15,48,3.40
2019,02,06,15,49,3.40
2019,02,06,15,50,3.40
2019,02,06,15,51,3.40
2019,02,06,15,52,3.40
2019,02,06,15,53,3.40
2019,02,06,15,54,3.40
2019,02,06,15,55,3.40
2019,02,06,15,56,3.40
2019,02,06,15,57,3.40
2019,02,06,15,58,3.40
2019,02,06,15,59,3.40
2019,02,06,16,00,3.40
2019,02,06,16,01,3.40
2019,02,06,16,02,3.40
2019,02,06,16,03,3.40
2019,02,06,16,04,3.40
2019,02,06,16,05,3.30
2019,02,06,16,06,3.30
2019,02,06,16,07,3.30
2019,02,06,16,08,3.30
2019,02,06,16,09,3.30
2019,02,06,16,10,3.20
2019,02,06,16,11,3.30
2019,02,06,16,12,3.20
2019,02,06,16,13,3.20
2019,02,06,16,14,3.20
2019,02,06,16,15,3.20
2019,02,06,16,16,3.20
2019,02,06,16,17,3.20
2019,02,06,16,18,3.20
2019,02,06,16,19,3.20
2019,02,06,16,20,3.20
2019,02,06,16,21,3.20
2019,02,06,16,22,3.20
2019,02,06,16,23,3.20
2019,02,06,16,24,3.20
2019,02,06,16,25,3.10
2019,02,06,16,26,3.10
2019,02,06,16,27,3.10
2019,02,06,16,28,3.10
2019,02,06,16,29,3.10
2019,02,06,16,30,3.10
2019,02,06,16,31,3.10
2019,02,06,16,32,3.10
2019,02,06,16,33,3.10
2019,02,06,16,34,3.10
2019,02,06,16,35,3.10
2019,02,06,16,36,3.00
2019,02,06,16,37,3.00
2019,02,06,16,38,3.00
2019,02,06,16,39,2.90
2019,02,06,16,40,2.90
2019,02,06,16,41,2.90
2019,02,06,16,42,2.90
2019,02,06,16,43,2.90
2019,02,06,16,44,2.80
2019,02,06,16,45,2.80
2019,02,06,16,46,2.80
2019,02,06,16,47,2.80
2019,02,06,16,48,2.80
2019,02,06,16,49,2.80
2019,02,06,16,50,2.70
2019,02,06,16,51,2.70
2019,02,06,16,52,2.70
2019,02,06,16,53,2.70
2019,02,06,16,54,2.70
2019,02,06,16,55,2.70
2019,02,06,16,56,2.70
2019,02,06,16,57,2.70
2019,02,06,16,58,2.60
2019,02,06,16,59,2.60
2019,02,06,17,00,2.60
2019,02,06,17,01,2.60
2019,02,06,17,02,2.60
2019,02,06,17,03,2.60
2019,02,06,17,04,2.50
2019,02,06,17,05,2.50
2019,02,06,17,06,2.50
2019,02,06,17,07,2.50
2019,02,06,17,08,2.50
2019,02,06,17,09,2.40
2019,02,06,17,10,2.40
2019,02,06,17,11,2.40
2019,02,06,17,12,2.40
2019,02,06,17,13,2.30
2019,02,06,17,14,2.30
2019,02,06,17,15,2.30
2019,02,06,17,16,2.30
2019,02,06,17,17,2.20
2019,02,06,17,18,2.20
2019,02,06,17,19,2.20
2019,02,06,17,20,2.20
2019,02,06,17,21,2.20
2019,02,06,17,22,2.10
2019,02,06,17,23,2.10
2019,02,06,17,24,2.10
2019,02,06,17,25,2.10
2019,02,06,17,26,2.10
2019,02,06,17,27,2.10
2019,02,06,17,28,2.10
2019,02,06,17,29,2.10
2019,02,06,17,30,2.00
2019,02,06,17,31,2.00
2019,02,06,17,32,2.00
2019,02,06,17,33,2.00
2019,02,06,17,34,2.00
2019,02,06,17,35,2.00
2019,02,06,17,36,1.90
2019,02,06,17,37,1.90
2019,02,06,17,38,1.90